Flag for Germany Weather past 2 weeks in Bünde, North Rhine-Westphalia, Germany

Now
61 °F

Passing clouds.


Feels Like: 61 °F
Forecast: 56 / 77 °F
Wind: 2 mph from Northeast

Location: Bueckeburg

Current Time: Sep 18, 2014 at 10:21:58 AM

Latest Report: Sep 18, 2014 at 9:20 AM


Visibility: N/A

Pressure: 29.89 "Hg

Humidity: 83%

Dew point: 55 °F

Location of BündeLocation

Historic Weather in Bünde — Graph

°F

Bünde temperature yesterday

Maximum temperature yesterday: 75 °F (at 3:20 PM)
Minimum temperature yesterday: 57 °F (at 6:20 AM)
Average temperature yesterday: 66 °F

Past Weeks' High & Low Weather Summary

 TemperatureHumidityPressure
High77 °F (Sep 5, 2:20 PM)100% (Sep 3, 8:20 AM)30.30 "Hg (Sep 3, 8:20 AM)
Low48 °F (Sep 12, 1:20 AM)50% (Sep 17, 3:20 PM)29.86 "Hg (Sep 6, 4:20 PM)
Average62 °F83%30.06 "Hg
* Reported Sep 3 8:20 AM — Sep 18 8:55 AM, Bünde, Weather by CustomWeather, © 2014

Note: Actual official high and low records may vary slightly from our data, if they occured in-between our weather recording intervals... More about our weather records

Advertising

Bünde weather history for previous 24 hours

 ConditionsComfort  
Time TempWeatherWind HumidityBarometerVisibility
8:55 AM
Sep 18
59 °FPassing clouds.3 mph88%29.89 "Hg5 mi
8:20 AM55 °FFog.1 mph100%29.89 "Hg2 mi
7:58 AM54 °FFog.No wind100%29.89 "Hg2 mi
7:20 AM52 °FFog.1 mph94%29.89 "Hg0 mi
6:20 AM54 °FFog.No wind94%29.89 "Hg0 mi
5:20 AM55 °FFog.1 mph94%29.89 "HgN/A
4:20 AM55 °FFog.2 mph94%29.89 "HgN/A
3:20 AM55 °FFog.2 mph100%29.89 "HgN/A
2:20 AM55 °FFog.3 mph100%29.92 "HgN/A
1:20 AM59 °FPassing clouds.1 mph88%29.92 "HgN/A
12:20 AM61 °FPassing clouds.2 mph88%29.92 "HgN/A
11:20 PM
Sep 17
61 °FPassing clouds.1 mph88%29.92 "HgN/A
10:20 PM64 °FPassing clouds.2 mph78%29.92 "HgN/A
9:20 PM68 °FPassing clouds.6 mph69%29.92 "HgN/A
8:20 PM68 °FPassing clouds.5 mph69%29.92 "HgN/A
7:20 PM70 °FPassing clouds.6 mph64%29.92 "HgN/A
6:20 PM73 °FPassing clouds.9 mph57%29.92 "HgN/A
5:20 PM73 °FPassing clouds.8 mph57%29.92 "HgN/A
4:20 PM75 °FPassing clouds.13 mph54%29.92 "HgN/A
3:20 PM75 °FPassing clouds.13 mph50%29.92 "HgN/A
2:20 PM73 °FPassing clouds.9 mph57%29.95 "HgN/A
1:20 PM73 °FPassing clouds.15 mph53%29.95 "HgN/A
12:20 PM72 °FPassing clouds.12 mph61%29.95 "HgN/A
11:20 AM72 °FPassing clouds.3 mph65%29.98 "Hg6 mi
10:20 AM66 °FPassing clouds.3 mph83%29.98 "Hg4 mi
10:03 AM64 °FPassing clouds.1 mph88%29.98 "Hg4 mi
Weather by CustomWeather, © 2014

See weather overviewHow to use our weather pages